TimeCDT,TemperatureF,Dew PointF,Humidity,Sea Level PressureIn,VisibilityMPH,Wind Direction,Wind SpeedMPH,Gust SpeedMPH,PrecipitationIn,Events,Conditions,WindDirDegrees,DateUTC
12:04 AM,46.4,46.4,100,30.11,1.8,Calm,Calm,-,N/A,,Clear,0,2013-09-29 05:04:00
12:17 AM,48.2,46.4,93,30.10,3.0,Calm,Calm,-,N/A,,Clear,0,2013-09-29 05:17:00
12:35 AM,46.4,46.4,100,30.10,1.5,Calm,Calm,-,N/A,,Clear,0,2013-09-29 05:35:00
12:40 AM,46.4,46.4,100,30.10,0.5,Calm,Calm,-,N/A,Fog,Fog,0,2013-09-29 05:40:00
12:52 AM,46.9,45.0,93,30.10,1.0,NW,4.6,-,N/A,,Clear,320,2013-09-29 05:52:00
12:59 AM,46.4,44.6,93,30.10,3.0,NNW,4.6,-,N/A,,Clear,330,2013-09-29 05:59:00
1:06 AM,46.4,44.6,93,30.10,7.0,NW,4.6,-,N/A,,Partly Cloudy,320,2013-09-29 06:06:00
1:52 AM,45.0,44.1,97,30.11,10.0,NW,4.6,-,N/A,,Clear,320,2013-09-29 06:52:00
2:52 AM,46.0,43.0,89,30.10,10.0,Calm,Calm,-,N/A,,Clear,0,2013-09-29 07:52:00
3:25 AM,44.6,42.8,93,30.09,1.8,Calm,Calm,-,N/A,,Clear,0,2013-09-29 08:25:00
3:32 AM,44.6,42.8,93,30.09,4.0,Calm,Calm,-,N/A,,Clear,0,2013-09-29 08:32:00
3:45 AM,44.6,42.8,93,30.09,2.5,Calm,Calm,-,N/A,,Partly Cloudy,0,2013-09-29 08:45:00
3:48 AM,44.6,42.8,93,30.09,1.0,Calm,Calm,-,N/A,,Mist,0,2013-09-29 08:48:00
3:52 AM,44.1,42.1,93,30.09,0.5,Calm,Calm,-,N/A,Fog,Fog,0,2013-09-29 08:52:00
4:01 AM,42.8,41.0,93,30.09,1.0,NNW,3.5,-,N/A,,Mist,330,2013-09-29 09:01:00
4:06 AM,44.6,42.8,93,30.09,2.0,NNW,3.5,-,N/A,,Partly Cloudy,340,2013-09-29 09:06:00
4:14 AM,42.8,42.8,100,30.08,8.0,NNW,3.5,-,N/A,,Partly Cloudy,340,2013-09-29 09:14:00
4:30 AM,42.8,41.0,93,30.08,2.5,Calm,Calm,-,N/A,,Clear,0,2013-09-29 09:30:00
4:33 AM,42.8,39.2,87,30.08,4.0,Calm,Calm,-,N/A,,Partly Cloudy,0,2013-09-29 09:33:00
4:52 AM,43.0,41.0,93,30.09,10.0,NW,4.6,-,N/A,,Partly Cloudy,320,2013-09-29 09:52:00
5:15 AM,42.8,42.8,100,30.09,1.2,WNW,3.5,-,N/A,,Scattered Clouds,300,2013-09-29 10:15:00
5:18 AM,42.8,41.0,93,30.09,0.5,Calm,Calm,-,N/A,Fog,Fog,0,2013-09-29 10:18:00
5:28 AM,42.8,42.8,100,30.09,0.2,Calm,Calm,-,N/A,Fog,Fog,0,2013-09-29 10:28:00
5:38 AM,42.8,41.0,93,30.09,0.8,NNW,3.5,-,N/A,,Mist,330,2013-09-29 10:38:00
5:52 AM,43.0,41.0,93,30.09,1.0,Calm,Calm,-,N/A,,Mist,0,2013-09-29 10:52:00
6:02 AM,44.6,42.8,93,30.10,0.8,Calm,Calm,-,N/A,,Mist,0,2013-09-29 11:02:00
6:12 AM,42.8,42.8,100,30.10,0.5,Calm,Calm,-,N/A,Fog,Fog,0,2013-09-29 11:12:00
6:34 AM,42.8,42.8,100,30.10,0.2,Calm,Calm,-,N/A,Fog,Fog,0,2013-09-29 11:34:00
6:52 AM,44.1,42.1,93,30.11,0.2,Calm,Calm,-,N/A,Fog,Fog,0,2013-09-29 11:52:00
7:39 AM,42.8,42.8,100,30.11,0.8,NNW,3.5,-,N/A,,Mist,340,2013-09-29 12:39:00
7:45 AM,44.6,42.8,93,30.11,1.5,Calm,Calm,-,N/A,,Scattered Clouds,0,2013-09-29 12:45:00
7:52 AM,44.1,43.0,96,30.12,1.2,Calm,Calm,-,N/A,,Scattered Clouds,0,2013-09-29 12:52:00
8:01 AM,44.6,44.6,100,30.11,1.0,Calm,Calm,-,N/A,,Mist,0,2013-09-29 13:01:00
8:06 AM,44.6,44.6,100,30.11,2.0,Calm,Calm,-,N/A,,Partly Cloudy,0,2013-09-29 13:06:00
8:14 AM,46.4,44.6,93,30.11,7.0,Calm,Calm,-,N/A,,Partly Cloudy,0,2013-09-29 13:14:00
8:52 AM,48.9,48.0,97,30.12,10.0,Calm,Calm,-,N/A,,Clear,0,2013-09-29 13:52:00
9:52 AM,57.0,52.0,83,30.13,10.0,Calm,Calm,-,N/A,,Clear,0,2013-09-29 14:52:00
10:52 AM,64.0,53.1,67,30.12,10.0,Calm,Calm,-,N/A,,Clear,0,2013-09-29 15:52:00
11:52 AM,69.1,45.0,42,30.10,10.0,Variable,3.5,-,N/A,,Clear,0,2013-09-29 16:52:00
12:52 PM,72.0,46.0,40,30.07,10.0,South,4.6,-,N/A,,Clear,180,2013-09-29 17:52:00
1:52 PM,72.0,48.0,43,30.04,10.0,Variable,5.8,-,N/A,,Clear,0,2013-09-29 18:52:00
2:52 PM,73.9,46.9,38,30.00,10.0,South,6.9,-,N/A,,Clear,180,2013-09-29 19:52:00
3:52 PM,75.0,48.0,38,29.99,10.0,SSE,4.6,-,N/A,,Clear,160,2013-09-29 20:52:00
4:52 PM,75.0,46.9,37,29.97,10.0,South,6.9,-,N/A,,Clear,170,2013-09-29 21:52:00
5:52 PM,73.0,50.0,44,29.96,10.0,SSE,6.9,-,N/A,,Clear,160,2013-09-29 22:52:00
6:52 PM,66.9,51.1,57,29.96,10.0,SE,4.6,-,N/A,,Clear,140,2013-09-29 23:52:00
7:52 PM,59.0,51.1,75,29.97,10.0,SE,4.6,-,N/A,,Clear,130,2013-09-30 00:52:00
8:52 PM,57.0,50.0,77,29.97,10.0,SE,4.6,-,N/A,,Clear,130,2013-09-30 01:52:00
9:52 PM,55.9,50.0,80,29.97,10.0,SE,5.8,-,N/A,,Clear,130,2013-09-30 02:52:00
10:52 PM,54.0,50.0,86,29.96,10.0,ESE,5.8,-,N/A,,Clear,120,2013-09-30 03:52:00
11:52 PM,53.1,48.9,86,29.96,10.0,Calm,Calm,-,N/A,,Clear,0,2013-09-30 04:52:00